Theta_e
312 311 311 309 309 308 308 306 304 304 303 303 302 301 300 300 300 299 299 299 299 299 299 299 298 298 297 295 295 295 295 294 294 294 294 294 294 293 293 293 293 293 293 292 292 292 292 291 291 291 291 290 289 289 288 287 287 287 287 287 286 286 286 286 286 285 285 285 285
312 311 310 307 307 307 308 306 304 304 303 303 302 301 301 301 300 300 299 299 299 299 299 299 298 298 297 296 296 295 295 294 294 294 294 294 294 293 293 293 293 293 293 293 292 292 292 292 292 292 291 290 289 289 288 286 286 287 287 286 286 286 286 286 285 285 285 285 284
312 311 310 310 309 309 308 307 305 304 304 303 303 302 301 301 300 300 300 300 299 299 299 299 298 297 297 296 296 296 296 295 295 295 295 295 294 293 293 294 294 293 293 293 293 293 293 292 292 292 292 291 290 289 288 287 287 287 287 286 286 287 287 287 285 284 285 285 285
313 312 311 310 309 308 308 308 306 305 304 304 303 302 301 301 301 300 300 299 299 299 299 299 298 298 297 297 297 296 296 295 295 295 295 295 294 294 294 294 294 294 294 293 293 293 292 292 293 293 292 290 289 289 289 288 287 287 287 287 287 287 287 287 286 285 286 286 285
313 312 312 311 309 309 308 308 306 305 305 305 303 303 302 301 301 300 299 299 299 299 299 299 299 298 298 297 297 296 296 294 294 295 295 295 294 294 294 294 294 294 294 294 293 292 292 292 293 293 292 291 291 290 289 288 288 288 288 288 288 288 287 287 287 287 286 286 286
314 313 312 311 310 309 309 309 307 306 306 305 304 303 302 302 301 301 300 300 300 299 298 298 298 298 297 297 297 296 296 295 294 295 295 294 294 293 294 294 294 294 294 294 293 292 292 292 293 293 292 292 291 290 289 288 289 289 288 288 288 288 288 287 287 287 287 287 286
315 314 313 312 310 310 309 309 307 306 306 305 304 303 302 302 302 301 300 300 300 299 298 298 297 297 297 297 297 297 296 295 295 295 295 295 294 293 293 294 294 294 294 293 293 293 293 293 293 293 292 292 292 290 289 289 290 289 289 288 288 288 287 287 287 287 287 287 287
316 315 314 313 311 310 310 309 308 307 306 306 304 303 302 302 301 301 300 300 300 299 299 298 298 298 297 297 297 297 296 295 295 294 294 294 293 293 293 294 294 294 294 294 293 293 293 293 294 293 293 293 293 292 290 289 290 289 289 288 288 288 287 287 287 287 287 287 287
317 316 315 313 312 311 310 309 308 307 306 306 305 304 303 303 302 301 301 300 300 299 299 299 298 298 297 297 297 297 297 296 295 294 294 293 293 293 293 293 293 293 293 294 294 294 294 294 294 294 293 294 294 293 291 290 290 289 289 289 289 288 287 287 287 287 288 288 288
317 317 316 314 313 311 310 310 309 308 306 306 305 304 303 301 301 301 301 301 300 300 299 299 298 298 297 297 297 297 297 296 295 294 293 293 293 293 293 294 293 294 294 294 295 295 295 296 295 294 294 294 294 293 291 291 290 290 289 290 290 289 288 287 288 288 289 289 289
317 317 317 316 313 312 311 310 309 308 307 306 306 305 303 302 302 302 301 301 300 300 299 299 298 298 297 297 297 297 297 296 296 295 294 294 293 293 294 294 294 295 295 295 296 296 296 296 294 293 293 294 294 292 291 291 290 290 290 290 290 289 289 288 289 289 290 290 291
318 318 318 317 315 313 311 311 310 309 307 307 306 305 304 304 303 302 301 300 300 299 299 299 299 298 298 298 297 297 297 296 296 295 295 295 294 294 294 294 295 295 296 296 296 296 296 295 294 293 293 293 294 293 292 291 291 290 290 290 290 290 290 290 290 290 291 291 291
318 318 318 318 316 314 312 311 311 310 308 307 307 306 305 304 303 302 301 300 300 300 300 299 298 298 298 298 298 299 299 298 297 297 296 296 295 295 295 295 295 295 296 296 296 296 296 295 294 293 293 293 293 293 293 292 292 291 290 290 290 291 291 291 291 291 291 291 291
319 318 319 318 317 315 313 312 311 310 309 308 307 307 306 305 303 302 301 301 300 300 299 299 298 299 300 300 301 301 300 300 299 298 298 297 296 296 296 296 296 296 296 296 297 297 297 296 295 294 293 293 293 293 293 292 292 292 291 291 291 291 292 292 291 291 291 292 291
318 318 319 318 317 316 314 313 312 311 310 309 308 307 306 305 303 302 301 301 300 300 300 299 299 301 304 305 306 305 303 302 301 300 299 298 297 297 297 297 297 297 297 296 297 297 297 297 296 295 294 294 293 293 292 293 293 293 292 292 292 292 292 292 292 292 292 292 292
318 319 318 319 318 317 315 314 313 313 311 310 309 308 306 305 303 302 301 300 300 300 300 299 300 303 307 307 308 306 304 302 302 300 300 298 298 298 298 299 298 298 297 297 297 297 297 297 296 295 295 294 294 293 293 293 293 293 293 293 292 292 292 292 292 292 292 292 292
319 318 319 319 318 317 316 315 314 314 313 311 309 308 307 305 304 302 300 300 300 300 300 299 302 305 308 308 308 306 304 303 303 301 300 299 299 299 299 300 299 298 297 297 296 297 297 297 296 295 295 295 294 293 293 293 293 293 293 293 293 293 292 292 292 293 293 293 293
319 318 318 318 318 318 317 316 315 314 313 311 310 308 307 305 303 302 300 300 301 301 300 300 302 306 309 309 308 306 305 304 303 302 301 300 300 300 301 301 299 298 297 297 296 296 297 297 296 295 295 295 294 294 293 293 293 293 293 293 293 293 293 293 293 293 294 293 293
319 319 318 318 318 318 318 316 316 315 313 312 310 308 307 305 303 302 301 301 301 301 301 300 302 306 308 309 308 306 305 304 303 302 301 301 301 301 302 301 299 298 297 297 297 296 297 297 296 295 295 294 294 294 294 294 293 293 293 293 293 293 293 294 294 294 294 294 294
320 319 319 319 319 319 318 317 316 315 314 312 310 309 307 305 304 303 302 303 303 303 303 302 304 306 307 308 307 306 305 303 303 302 301 301 301 302 301 300 299 298 297 297 296 296 296 296 296 295 295 294 294 294 293 294 293 293 293 293 293 294 294 294 294 294 294 294 295
320 320 319 319 319 319 319 318 317 316 314 313 311 309 307 306 304 303 303 305 305 305 305 305 305 305 306 307 307 306 305 303 302 302 301 301 301 301 301 300 299 298 297 297 296 296 296 296 296 295 295 294 294 293 293 293 293 293 293 293 294 294 294 294 294 294 295 295 295
321 321 320 320 320 319 319 318 318 316 315 313 311 309 308 306 305 304 305 306 307 307 306 305 304 304 305 306 306 305 305 303 302 302 302 302 301 301 300 299 298 298 297 297 296 296 296 296 295 295 294 294 293 293 293 293 293 293 293 294 294 294 294 294 295 295 295 296 296
322 321 321 321 320 319 318 318 318 316 315 314 311 309 308 306 305 305 306 307 308 307 306 305 304 304 304 305 305 305 304 304 303 302 302 302 301 300 300 299 299 298 297 297 297 296 296 295 295 295 295 294 294 293 294 294 293 293 293 294 294 294 294 295 295 296 296 296 296
322 322 322 322 321 320 319 319 318 316 315 314 312 310 308 306 306 306 306 307 308 307 306 305 304 304 304 304 305 305 305 305 304 303 302 301 301 300 299 299 299 298 298 298 297 296 295 295 295 295 295 294 294 294 294 294 294 294 294 294 294 294 294 295 295 296 296 296 296
322 322 322 322 322 322 321 320 319 318 316 315 312 310 308 306 306 305 306 307 308 308 307 305 304 304 304 304 304 305 306 306 304 303 301 300 299 299 299 299 299 298 298 297 296 295 294 294 295 295 295 294 294 294 294 294 294 294 294 293 293 294 294 295 295 295 295 296 296
322 322 322 322 323 322 321 321 320 318 317 315 312 310 308 306 306 306 306 307 308 308 307 305 304 303 302 303 304 305 306 306 304 302 300 299 298 298 298 298 298 298 298 296 294 293 293 293 293 293 294 295 294 293 293 294 294 294 293 293 293 294 294 294 294 295 295 295 296
322 322 322 322 322 322 321 321 321 319 317 315 313 310 308 306 307 307 307 308 308 308 306 304 304 302 301 303 303 303 304 304 302 301 299 299 298 298 298 298 298 297 296 295 293 293 293 293 293 293 293 294 293 293 293 293 293 293 293 293 294 294 294 294 294 294 295 295 295
321 321 321 321 321 321 321 321 321 320 318 315 313 311 309 308 307 307 307 307 308 308 307 305 303 302 303 304 303 302 302 302 301 300 299 298 298 297 297 297 297 296 295 294 293 292 293 293 293 293 293 292 293 293 292 293 293 293 294 293 294 294 294 294 294 294 294 294 295
321 321 321 321 321 321 321 321 321 320 319 316 313 311 309 308 307 307 307 308 308 308 308 308 305 304 303 303 303 302 301 301 300 300 299 298 297 297 296 295 295 294 294 293 293 293 293 293 293 293 292 292 293 293 293 293 293 293 294 294 294 294 294 294 294 294 294 294 295
321 321 321 321 321 320 321 321 321 321 320 317 313 311 309 308 307 307 307 308 308 309 310 309 306 304 303 303 303 302 301 301 300 300 299 298 297 296 295 294 295 294 294 293 293 293 293 293 293 293 292 292 292 293 294 294 294 294 294 294 294 294 293 294 294 294 294 294 294
320 320 320 320 320 320 320 321 321 321 320 318 313 311 310 308 307 306 306 308 309 309 309 310 307 304 303 303 303 302 301 300 300 300 299 298 296 295 295 295 294 293 293 292 293 293 293 293 293 292 292 292 292 293 293 293 293 293 293 294 293 293 293 294 294 294 294 294 294
319 319 320 320 320 320 320 320 319 319 318 316 313 311 309 309 307 306 307 309 309 309 309 309 307 304 303 303 302 302 301 300 300 299 299 298 297 296 295 294 293 292 291 292 292 293 293 293 293 292 292 291 292 293 293 293 293 292 293 293 293 293 293 294 294 294 294 294 294
319 319 319 319 319 319 319 319 317 315 313 312 311 310 309 309 307 306 307 309 310 310 309 308 306 305 303 302 301 301 300 300 299 298 298 297 297 296 295 293 293 292 291 291 292 292 292 292 292 292 291 291 292 293 293 293 293 292 292 292 293 293 293 293 294 294 294 294 295
319 319 319 319 318 317 317 316 315 314 313 311 310 309 309 309 308 306 306 306 308 309 309 307 306 305 303 302 301 300 299 298 298 298 297 297 297 296 294 293 292 292 291 291 291 291 292 292 292 291 291 291 292 293 293 293 292 292 292 292 293 293 293 294 294 294 295 295 295
319 318 318 318 317 316 315 314 313 313 313 313 312 311 310 310 309 306 304 304 305 307 308 306 305 304 302 301 300 299 298 297 297 297 297 296 296 295 294 292 292 291 290 291 291 291 291 292 291 292 291 291 292 293 293 293 292 292 292 292 293 293 293 294 294 294 295 295 295
319 318 318 317 315 314 314 313 312 312 311 311 311 310 309 308 307 305 303 302 304 305 305 304 303 302 300 299 298 297 297 297 296 296 295 295 295 294 293 292 292 291 291 291 291 291 292 292 292 291 292 292 293 293 293 293 293 293 293 292 293 293 293 294 294 294 295 295 295
318 317 316 315 314 313 312 312 311 310 309 308 308 307 307 306 304 303 302 301 303 304 303 302 301 300 299 298 298 297 296 296 295 295 294 294 294 294 293 292 292 291 290 291 291 292 292 292 292 292 292 293 293 293 293 293 293 293 293 292 293 293 294 294 294 294 295 295 295
317 315 314 312 311 311 310 310 309 308 307 306 306 305 305 305 304 302 301 301 302 302 301 301 300 299 298 297 297 296 296 296 295 295 294 294 294 294 293 292 292 292 291 291 291 292 292 292 292 292 292 293 293 293 293 293 293 292 292 292 293 293 293 293 294 294 294 294 293
314 313 311 310 310 309 309 309 308 307 306 306 305 304 304 304 303 302 301 301 302 301 300 299 298 298 297 296 296 296 295 295 295 295 294 294 294 293 293 293 293 292 291 291 291 292 292 292 292 292 292 292 293 293 293 293 292 292 292 292 292 292 292 293 293 293 293 292 292
311 310 309 308 308 308 308 308 307 307 306 306 305 304 303 302 301 301 301 301 301 300 299 298 297 297 296 295 295 295 295 295 295 294 294 294 294 293 293 293 293 292 291 291 291 292 292 292 292 292 292 292 292 292 292 292 292 292 292 292 292 292 292 292 292 293 292 292 292
309 309 308 307 306 306 307 307 307 306 306 305 304 302 301 300 299 300 300 300 299 299 298 297 297 296 295 295 295 294 294 293 293 293 294 293 294 293 293 292 292 291 290 291 291 292 292 292 292 292 292 291 291 292 292 292 292 291 291 291 291 292 292 292 292 292 291 291 291
Wind_Speed
12 11 10 9 9 9 8 7 7 7 8 9 9 9 9 9 9 8 7 7 7 7 7 7 7 7 7 9 10 11 10 9 10 10 10 10 10 10 9 9 9 9 9 8 8 7 7 7 6 5 4 4 4 3 3 3 3 3 3 3 3 3 4 5 4 3 3 3 2
13 12 11 10 9 8 7 7 7 7 7 8 8 8 9 9 9 9 8 8 8 7 7 6 7 7 8 10 11 11 11 10 11 11 11 11 11 10 10 9 9 10 10 10 9 8 7 7 6 5 4 4 4 4 3 3 3 4 4 4 3 3 3 4 3 3 3 3 2
13 13 12 11 10 10 9 8 8 9 9 8 8 8 8 8 8 8 8 9 8 7 7 6 7 9 10 10 10 10 11 11 12 12 11 11 11 11 10 10 10 10 10 10 9 8 7 7 7 6 5 4 5 4 4 3 3 4 4 4 3 3 3 3 3 3 3 3 3
14 13 13 13 13 13 12 10 10 11 11 9 8 8 8 7 7 7 7 7 7 7 7 7 8 9 10 10 11 11 11 11 12 12 12 11 11 11 11 10 11 10 10 10 10 9 8 8 6 5 5 5 6 5 4 3 4 4 3 3 3 3 3 3 2 2 2 3 2
15 14 14 13 14 14 13 11 12 12 11 9 8 8 8 7 7 6 6 7 8 8 9 9 9 9 9 10 12 12 11 11 11 11 11 11 11 11 11 11 11 11 10 10 10 9 9 8 6 5 5 5 5 4 4 5 5 4 3 2 2 3 3 3 3 2 2 2 2
15 15 14 13 14 13 12 11 12 12 11 10 10 10 9 8 8 8 8 9 10 10 10 10 9 9 9 10 11 12 11 11 11 11 11 11 10 10 10 10 10 10 9 9 9 9 9 8 5 4 4 4 4 3 4 6 5 4 3 2 2 2 3 3 3 3 3 3 2
16 16 15 14 14 14 12 11 11 11 11 10 11 12 12 11 11 11 11 11 9 9 9 9 8 9 9 11 11 11 11 10 10 10 10 10 9 9 10 10 9 9 8 8 8 8 7 7 5 4 4 4 4 4 4 5 5 5 4 3 2 2 3 4 3 3 4 4 4
15 16 16 15 15 15 14 13 12 11 11 10 12 14 14 14 14 13 12 10 9 9 9 9 9 10 11 11 11 11 11 10 9 9 8 8 8 8 8 8 8 8 8 7 8 7 6 5 4 4 4 4 4 4 5 7 7 7 6 5 3 2 3 3 4 4 5 6 5
15 15 16 15 15 15 15 14 13 13 12 12 14 14 15 14 14 13 12 11 10 9 9 9 10 10 10 11 11 11 10 9 9 7 6 6 7 7 7 7 7 7 6 6 7 7 7 5 4 4 4 4 4 5 6 8 8 8 7 6 4 3 3 3 4 5 6 6 6
15 16 16 15 15 16 15 14 14 14 14 14 14 14 14 13 13 12 11 9 9 8 9 9 9 9 9 9 9 9 8 7 7 6 6 6 6 6 6 6 6 6 5 5 6 7 7 5 5 5 5 5 6 7 7 8 9 9 8 5 5 5 5 4 5 6 7 7 7
16 16 16 15 16 16 15 15 13 13 13 13 13 13 13 12 12 11 10 8 8 9 10 9 9 9 8 8 7 7 6 6 6 6 6 5 6 6 6 5 5 5 5 5 5 6 6 6 6 7 7 6 7 7 8 9 10 10 9 6 7 7 7 6 6 7 7 7 8
16 16 16 15 16 16 15 15 14 13 13 14 13 13 12 12 12 10 9 8 9 9 9 8 9 8 8 7 6 6 6 6 6 6 6 6 6 6 5 5 5 5 5 6 6 6 6 7 8 8 8 7 7 7 8 9 10 10 10 8 8 8 8 8 7 7 7 7 8
16 16 16 16 16 16 16 16 14 13 14 14 14 13 12 11 11 10 10 10 9 9 8 7 8 8 8 7 7 7 7 7 7 7 6 6 6 6 6 5 5 5 6 6 7 7 7 8 9 10 10 9 8 8 9 10 11 11 11 10 10 10 9 9 9 8 7 8 8
16 16 16 16 16 16 16 16 14 14 14 15 14 13 12 11 10 10 10 10 9 8 8 7 7 7 7 7 7 7 7 7 7 7 7 7 7 7 7 6 6 6 7 8 8 9 10 9 10 11 11 11 10 9 9 10 11 11 11 11 11 11 11 10 10 9 9 9 8
17 16 16 16 16 16 16 16 14 14 14 14 13 12 11 10 9 9 9 9 9 8 8 8 7 7 6 6 6 6 6 7 7 7 7 7 7 8 8 8 8 9 10 11 11 11 11 12 11 12 12 12 12 11 10 10 11 11 11 11 11 11 10 10 9 9 9 9 9
17 17 17 17 17 16 16 16 14 13 13 13 13 12 11 9 9 9 9 10 9 8 8 9 8 7 6 6 6 7 8 9 9 8 8 9 10 10 11 11 13 14 14 13 12 12 12 12 11 11 12 12 12 11 11 11 11 11 10 10 10 9 9 9 8 8 9 9 9
18 18 18 17 18 17 17 16 14 13 13 13 13 12 11 9 9 9 9 10 9 9 10 11 10 8 7 7 7 9 10 11 11 12 13 14 14 14 14 15 17 17 16 14 13 13 12 11 10 11 11 12 11 11 12 11 11 10 9 9 8 8 7 7 7 7 8 8 9
19 19 18 18 19 19 18 18 16 15 14 13 12 12 11 10 10 10 10 10 10 11 12 13 11 9 8 9 9 10 12 14 16 16 17 17 17 16 17 18 18 17 16 14 14 13 13 12 11 10 10 10 9 10 10 10 9 9 8 7 7 6 6 6 6 7 7 8 9
19 19 19 19 20 19 19 18 17 16 14 13 12 11 11 11 11 11 11 11 11 12 13 13 12 11 10 12 12 12 13 16 18 18 18 17 17 17 17 18 17 16 15 14 13 13 13 12 11 10 9 8 7 7 7 7 7 7 6 6 6 6 6 6 6 6 7 8 8
20 20 20 20 20 20 19 18 17 15 13 12 12 12 12 12 13 13 13 13 12 13 14 14 14 13 13 14 14 14 13 14 16 17 17 16 16 17 17 17 16 15 14 13 13 13 13 12 11 10 9 8 7 6 6 6 6 6 6 6 6 6 6 7 7 7 7 7 7
19 19 20 20 20 19 18 17 15 14 13 12 12 13 14 14 15 15 15 14 14 14 15 16 17 17 16 15 15 14 13 11 14 16 16 15 15 16 15 15 14 13 13 12 12 13 13 12 11 10 10 9 8 7 6 6 6 6 6 6 6 6 7 8 8 7 7 7 7
14 16 17 18 18 18 16 15 14 13 13 12 13 14 14 15 16 16 16 15 14 14 15 16 17 17 16 15 15 14 13 11 13 14 14 14 14 13 13 13 13 12 12 12 12 12 12 12 11 11 10 9 9 8 8 7 7 7 7 7 7 8 8 8 8 8 8 8 8
13 13 13 13 13 13 13 12 13 13 13 13 13 14 15 15 16 16 16 15 13 13 13 12 12 13 14 14 15 15 14 12 12 13 13 12 12 12 12 12 12 13 13 12 12 12 11 11 11 11 11 10 10 9 9 9 9 8 8 9 9 9 9 8 8 8 8 8 8
14 15 15 14 15 15 14 11 10 10 10 11 12 14 14 15 15 15 15 13 12 11 10 9 9 10 12 13 14 14 14 13 12 12 12 12 12 12 12 12 12 12 12 10 10 11 11 10 10 10 10 10 10 10 10 11 10 10 10 11 10 10 9 9 9 9 9 9 8
16 18 19 18 19 18 16 14 12 10 9 10 11 13 14 14 14 13 13 12 10 9 9 9 9 9 10 12 13 13 13 12 12 12 12 12 11 11 11 11 11 10 9 9 10 12 12 11 10 10 10 10 10 10 10 11 11 11 11 11 11 10 10 9 9 9 9 9 8
15 16 17 18 19 18 16 14 12 12 11 11 11 12 13 13 12 11 11 10 9 8 8 9 9 9 10 11 12 12 11 10 11 12 12 12 11 11 10 10 9 8 8 9 11 14 15 14 13 11 10 10 10 9 9 9 11 11 11 11 11 10 10 10 10 9 9 8 8
11 11 11 12 14 14 14 13 12 13 14 13 12 12 12 12 11 10 10 9 8 8 8 8 8 9 9 9 11 11 10 9 9 10 11 11 12 11 10 9 8 7 7 9 12 15 16 16 16 14 12 10 10 9 9 8 9 10 10 10 10 10 11 11 10 10 9 8 8
9 9 8 7 9 10 11 10 12 14 15 14 12 12 12 12 11 11 10 9 8 8 7 6 7 7 7 7 9 10 10 9 9 9 10 11 11 11 11 9 8 7 8 11 13 15 17 18 18 17 15 11 9 9 9 8 9 9 9 9 9 9 10 10 9 9 8 8 8
7 7 8 8 9 9 10 10 13 14 15 13 11 11 12 12 12 12 11 10 9 7 6 5 4 5 5 7 8 9 9 9 9 9 10 10 11 10 10 9 8 8 10 12 14 16 17 18 18 18 17 14 10 8 7 8 8 8 7 7 7 8 8 8 7 7 7 7 7
7 8 9 9 10 10 11 12 14 14 14 11 10 10 12 12 13 13 12 11 9 7 5 4 4 5 7 8 8 8 8 9 9 9 10 11 10 9 8 8 7 8 10 13 15 16 17 18 19 19 18 17 12 9 7 7 7 7 7 7 7 7 7 7 7 6 6 6 6
9 10 11 10 9 9 10 13 15 15 14 13 11 11 12 13 13 13 13 11 8 6 5 5 6 8 9 9 8 8 9 9 9 9 10 10 10 8 7 6 6 6 8 12 14 16 17 18 18 18 18 18 13 9 7 7 7 7 6 6 6 7 6 6 6 6 6 5 5
12 13 13 12 11 11 12 14 15 14 14 14 13 12 12 12 12 12 11 10 7 6 5 6 8 9 9 8 7 7 7 8 8 8 8 8 7 6 4 3 2 3 5 9 12 14 16 16 16 17 16 16 12 9 8 7 7 6 6 6 6 6 6 5 5 5 5 5 5
13 13 13 13 12 12 12 12 10 8 8 10 10 10 10 8 7 8 9 9 7 7 7 8 9 10 9 7 7 7 7 7 7 7 6 6 6 5 4 4 3 2 2 6 10 12 13 13 13 13 13 12 9 7 7 7 5 5 4 4 4 5 5 5 4 5 5 6 6
13 13 12 11 9 7 7 7 6 5 4 4 5 6 5 4 3 4 6 7 6 6 7 8 8 8 7 7 6 6 6 6 6 6 6 6 6 6 5 4 4 4 4 6 7 9 9 10 10 10 9 8 6 6 6 6 5 4 4 4 4 4 4 4 5 5 6 6 6
13 12 11 9 7 6 5 5 6 6 6 7 7 7 7 4 2 4 5 5 5 5 6 6 6 6 5 5 5 5 6 6 6 6 7 7 7 7 7 6 5 5 7 9 10 10 11 11 11 10 9 7 5 5 6 6 5 5 4 4 4 4 4 5 5 5 6 6 6
12 11 10 9 8 7 6 6 6 7 7 7 8 8 6 3 3 4 4 5 5 6 6 6 6 6 5 5 5 5 6 7 7 7 7 8 8 8 8 7 6 7 9 12 13 13 13 13 12 11 9 7 5 5 5 5 4 4 5 5 4 5 5 5 5 5 5 5 5
11 10 10 10 9 8 7 7 7 8 8 7 8 8 6 4 3 3 4 4 5 6 7 7 7 7 6 6 6 6 6 7 8 8 8 8 9 9 9 8 7 7 9 12 13 14 14 14 13 11 9 6 5 5 5 4 4 4 5 5 5 5 4 4 4 4 4 5 5
10 10 10 10 10 10 10 9 9 9 9 8 7 6 5 4 4 4 4 4 5 6 7 7 7 7 8 8 8 8 8 8 9 9 9 9 9 10 10 9 8 7 8 12 13 14 14 14 13 12 9 6 6 5 5 4 4 4 4 4 4 4 4 3 3 3 4 4 4
10 11 11 11 11 11 11 11 11 11 10 9 7 6 5 5 4 4 4 5 6 7 8 8 8 9 9 10 9 9 9 9 10 10 10 9 9 10 10 10 8 7 7 10 12 13 14 14 13 11 9 7 6 5 4 4 3 3 3 3 3 3 3 3 3 3 3 3 4
12 13 13 12 11 11 11 12 12 11 10 9 8 7 6 5 5 5 6 6 7 8 8 9 10 10 10 10 11 10 10 9 9 10 10 9 9 10 10 9 8 7 7 8 10 11 12 12 11 10 8 6 5 4 4 3 3 3 3 3 3 3 2 2 2 2 2 2 3
13 13 13 12 11 11 12 12 12 11 11 10 9 7 6 5 5 6 6 7 8 8 8 9 10 11 10 10 10 10 10 9 8 8 9 9 9 8 8 8 8 7 6 7 8 9 10 11 10 9 8 5 5 4 4 3 3 3 3 3 3 2 2 1 1 1 2 2 2
Wind_Direction
179 180 180 179 179 180 180 182 180 179 179 179 181 181 181 183 183 185 187 187 189 190 190 190 188 184 179 172 175 178 180 176 176 178 180 180 180 177 173 172 171 170 168 166 164 162 161 159 155 153 151 147 143 138 129 113 113 112 110 109 113 118 127 137 144 144 141 136 131
183 183 182 179 180 180 180 181 181 181 182 183 184 182 182 185 184 185 187 189 191 190 189 189 186 184 181 177 178 179 179 178 178 180 181 182 181 178 175 174 174 172 169 166 165 165 164 162 158 157 155 149 144 140 132 112 115 116 115 115 115 117 121 131 139 141 137 130 118
185 184 183 182 182 182 182 182 183 184 185 185 185 184 184 187 187 187 189 191 190 189 187 188 187 186 184 182 181 181 181 180 180 181 183 185 183 180 178 177 176 173 171 168 168 167 166 164 162 160 158 154 151 147 140 123 118 119 122 126 121 117 118 126 130 127 122 117 113
187 186 186 185 186 186 185 184 184 185 185 185 184 184 186 190 189 189 189 189 188 189 190 190 188 187 186 184 185 185 184 182 181 182 184 186 184 182 180 177 175 174 172 169 168 167 165 164 163 161 157 151 151 149 146 135 125 121 122 128 121 119 121 125 123 120 118 117 115
190 189 189 188 188 188 188 185 183 184 185 184 184 185 188 192 191 189 187 188 192 194 194 191 188 187 187 187 187 186 185 183 183 184 185 186 185 184 181 178 177 175 173 170 167 164 162 162 161 157 153 150 151 150 144 136 129 123 116 110 111 117 121 122 122 120 119 118 113
192 192 191 190 190 190 190 188 184 184 184 184 185 187 189 192 191 190 190 193 195 195 192 189 188 187 185 187 188 188 187 184 185 186 186 185 185 183 181 180 178 175 172 169 164 161 159 159 156 150 145 142 140 136 133 132 130 126 118 107 106 112 120 127 129 127 124 124 128
194 193 192 191 190 191 192 190 186 185 185 186 187 189 191 192 192 193 193 193 192 191 189 188 189 187 185 186 189 190 190 187 188 187 186 183 182 181 181 181 178 173 169 166 160 158 157 155 151 146 143 141 138 134 133 135 134 133 132 132 127 124 127 135 134 134 136 142 151
196 195 193 191 191 192 193 191 187 186 187 191 192 193 193 193 193 193 192 191 190 189 189 190 190 188 186 186 189 191 191 188 188 187 184 179 177 178 180 178 175 171 167 161 157 155 153 150 146 145 147 149 148 148 147 145 143 145 148 151 148 142 139 142 141 144 148 154 161
197 197 195 192 192 193 194 192 188 188 190 195 195 195 195 194 194 192 191 192 191 189 189 191 191 188 186 186 189 190 190 188 185 183 179 173 172 175 177 175 173 169 164 157 153 151 150 147 147 151 158 164 164 163 161 155 153 155 157 158 156 154 151 147 149 152 155 159 166
198 198 196 194 193 193 194 194 191 191 193 198 197 196 195 195 194 193 192 193 188 187 188 191 188 186 184 185 187 188 188 186 182 178 173 168 169 173 175 174 170 165 160 156 153 151 151 150 156 164 171 175 172 171 169 164 162 163 165 165 163 163 163 161 158 159 161 165 170
198 197 196 195 193 192 193 194 194 195 196 199 199 197 195 195 195 195 193 189 184 186 189 188 182 180 179 179 180 181 181 180 176 172 167 165 168 171 173 171 165 161 159 157 156 158 159 163 168 174 179 183 179 176 175 173 169 168 169 171 169 170 172 174 169 167 166 168 170
199 198 197 195 192 192 193 195 196 197 198 201 200 198 196 196 195 193 189 184 183 185 186 181 173 170 168 166 167 168 170 171 170 167 164 163 164 165 166 163 159 160 162 164 167 171 174 176 178 181 184 187 186 184 182 179 176 174 174 175 174 177 179 182 178 174 171 168 169
200 198 197 196 193 192 193 197 198 199 199 201 200 198 196 196 192 188 184 183 182 181 177 169 161 157 155 155 157 161 163 165 164 162 160 157 156 158 158 157 157 164 173 177 181 184 186 186 185 186 187 190 192 191 188 185 183 181 180 179 181 184 186 186 182 178 172 167 169
200 199 198 196 193 193 195 198 200 201 201 201 200 198 196 193 187 183 181 181 179 174 167 157 152 149 149 151 156 161 162 159 156 154 153 153 155 157 159 158 163 177 187 190 190 191 192 192 190 189 191 193 195 195 192 190 189 188 186 184 186 189 190 188 183 177 171 168 168
201 200 199 197 194 194 196 199 202 202 201 201 200 197 193 189 182 179 178 178 175 169 161 153 151 151 154 159 170 174 168 155 149 148 151 157 161 163 163 163 178 191 198 197 194 193 193 193 192 193 194 195 197 197 196 195 195 193 191 190 191 191 191 188 182 177 172 168 165
203 202 200 198 197 197 198 200 203 203 202 200 198 194 190 185 177 173 173 173 171 166 159 154 155 158 163 168 177 175 166 151 147 151 162 172 175 172 172 177 193 201 203 198 195 193 193 193 193 194 196 198 198 198 198 199 199 197 196 194 194 193 192 188 183 178 173 167 164
205 204 202 201 200 199 200 201 203 203 201 199 194 191 187 181 172 169 170 171 170 167 162 157 158 163 169 171 175 170 162 154 160 170 179 185 183 180 182 191 201 205 204 199 195 193 193 193 193 195 197 199 199 199 199 200 200 199 196 194 194 194 192 188 183 178 174 169 170
207 206 204 203 203 202 202 202 203 202 200 195 190 187 183 176 169 167 169 170 169 167 163 159 162 167 173 175 177 173 168 167 175 182 187 188 184 184 189 199 204 205 203 199 194 192 192 194 194 196 198 201 201 200 199 200 199 197 193 188 188 188 188 185 182 179 177 177 179
208 207 206 206 206 205 204 202 202 201 198 191 186 183 179 174 167 165 167 169 168 166 163 160 164 170 175 178 182 180 178 177 182 186 189 189 185 187 194 202 204 203 200 198 194 193 192 193 193 194 197 202 203 201 199 198 197 193 187 182 180 179 178 181 183 184 184 185 183
209 209 208 208 208 206 205 202 201 199 194 187 181 179 177 173 167 166 167 170 169 167 167 168 173 178 181 182 183 183 182 180 183 187 189 190 188 191 196 202 202 200 197 196 194 193 192 192 191 192 194 197 197 196 193 191 190 186 181 177 172 172 176 182 186 187 187 184 178
213 212 211 210 209 208 205 201 198 195 190 183 179 178 176 174 170 170 171 174 174 176 178 181 182 182 183 182 181 180 179 179 182 185 188 191 191 193 195 198 198 197 196 196 195 194 192 191 190 189 190 191 189 186 183 183 183 181 178 173 172 175 180 184 184 184 182 178 174
232 225 219 215 213 210 206 199 194 190 187 183 179 178 177 176 174 174 175 176 179 184 187 188 185 182 180 179 177 175 174 176 182 185 188 191 192 192 192 193 195 195 195 195 195 194 192 190 188 187 186 186 184 182 179 178 179 178 176 175 177 182 185 185 182 180 179 178 178
277 268 258 246 232 221 211 200 192 188 185 183 180 179 179 179 178 177 177 178 183 188 190 190 186 181 178 175 173 171 170 174 182 187 189 191 191 190 189 189 192 194 195 196 195 192 190 188 187 185 184 184 183 182 180 179 180 180 180 182 185 186 187 185 182 182 183 183 183
278 280 281 277 266 256 245 232 214 199 190 186 183 182 181 181 180 179 178 180 184 189 192 192 188 182 177 173 171 170 170 174 182 188 191 191 190 189 188 188 192 194 195 194 192 188 185 184 185 186 186 185 185 185 184 183 183 184 186 188 188 187 187 187 186 187 188 189 189
252 255 257 259 259 259 258 254 250 240 224 206 193 186 184 182 181 180 180 181 186 190 192 191 185 179 175 173 173 173 175 180 186 189 189 189 189 188 187 189 192 193 194 193 187 183 181 180 183 185 186 187 189 189 188 187 186 187 188 189 188 187 187 189 191 192 193 192 193
235 239 243 247 248 249 249 247 251 251 244 226 204 192 186 181 179 179 179 181 185 188 188 184 178 175 174 174 175 178 183 189 190 188 186 184 185 186 187 190 191 192 192 190 184 181 179 179 181 182 184 187 189 190 191 190 187 187 188 188 188 188 190 192 195 196 196 196 196
220 225 233 246 247 244 239 233 241 246 244 232 211 195 186 178 177 179 181 184 184 183 180 176 171 170 172 175 178 182 186 190 188 185 182 181 182 184 187 190 190 190 189 186 181 179 178 179 180 181 182 185 187 189 189 189 188 187 187 187 188 191 193 195 196 197 198 199 199
211 208 210 232 242 237 230 225 237 244 244 235 214 196 183 174 174 175 177 179 177 175 171 168 164 165 169 176 182 185 187 184 181 180 180 181 183 185 187 190 189 187 185 182 179 178 179 180 181 181 181 182 185 187 186 186 186 186 187 188 191 193 196 198 197 197 198 201 203
205 193 192 211 220 218 215 221 236 245 248 244 220 197 182 174 172 171 171 172 171 170 167 164 160 165 174 182 186 187 186 181 178 178 180 183 185 186 187 187 186 185 183 180 178 179 181 182 182 181 180 179 182 184 185 184 185 186 188 190 192 194 197 200 199 200 200 202 205
204 192 188 196 205 206 210 223 238 247 253 254 227 200 183 176 172 170 168 169 170 171 168 159 164 178 186 188 186 186 186 184 181 180 181 184 186 186 186 185 185 184 182 179 179 181 183 184 184 182 181 178 178 179 181 181 182 185 188 191 192 193 195 198 200 201 203 205 209
179 175 175 184 195 201 209 223 237 246 251 251 229 204 187 179 174 170 167 167 170 170 166 163 180 190 192 190 186 186 186 186 184 183 182 183 182 181 181 181 182 183 182 179 180 182 184 185 185 184 181 178 176 176 177 176 178 181 185 188 188 188 190 193 197 200 204 207 214
161 162 169 182 195 201 206 214 224 233 238 236 220 202 188 181 174 168 165 165 166 167 169 177 189 193 192 189 187 186 186 185 184 182 180 176 173 168 161 152 152 168 179 180 180 182 183 185 185 183 181 176 174 172 170 166 169 173 175 177 178 179 181 186 193 199 205 210 217
162 167 175 184 195 200 201 197 198 207 215 214 200 189 180 175 168 165 163 163 165 169 176 186 190 190 188 184 182 181 181 181 177 171 164 157 151 140 120 90 69 68 139 172 175 176 178 179 178 177 174 169 165 160 156 150 153 156 159 163 165 168 172 180 189 199 207 215 221
169 173 179 184 192 195 187 168 151 140 135 138 142 139 132 120 148 170 173 169 166 171 178 184 184 183 179 173 169 168 168 166 156 146 139 133 126 115 98 73 58 60 85 124 140 147 151 152 152 151 148 143 136 131 130 130 131 135 140 147 154 162 172 183 194 204 212 219 225
171 173 175 175 178 178 169 148 125 110 100 94 92 89 86 88 173 202 194 175 164 163 165 168 164 160 154 148 145 144 143 137 131 127 124 122 115 105 92 77 71 76 86 98 105 110 113 116 116 115 112 106 104 107 113 119 122 131 140 148 161 174 186 196 205 212 218 224 230
168 166 163 158 157 155 150 134 117 106 100 97 96 95 97 121 191 197 183 162 151 148 147 143 137 131 126 121 119 121 123 124 119 115 113 113 111 106 100 94 93 94 96 100 102 104 106 107 107 105 102 98 100 105 112 121 130 142 154 166 180 192 200 206 212 219 225 232 237
163 157 150 145 141 138 133 125 113 104 99 96 96 98 104 120 136 140 138 136 136 135 132 126 123 120 117 112 110 109 112 116 112 108 105 106 109 110 110 111 114 113 113 114 115 116 117 118 117 116 114 113 117 123 129 137 148 159 170 181 194 202 208 214 220 226 233 237 242
152 145 138 134 131 130 128 123 114 107 102 97 94 96 100 106 103 102 105 113 122 123 120 115 114 113 111 109 105 103 102 105 106 105 105 106 112 116 119 123 129 132 132 131 131 132 133 135 135 134 134 135 139 143 146 152 161 171 181 192 203 211 216 221 225 230 235 238 242
136 131 127 125 125 126 125 121 114 109 105 101 97 96 96 97 97 98 99 104 112 114 114 111 111 110 108 107 103 99 97 98 103 107 110 114 120 124 128 133 141 147 148 146 143 143 144 145 145 143 142 140 144 147 150 155 165 178 192 204 215 221 224 222 223 227 234 238 242
122 120 120 120 122 122 120 116 113 111 109 108 107 105 103 100 102 102 102 104 108 110 111 111 111 110 108 106 105 103 101 100 105 111 117 124 128 130 133 137 145 152 156 156 152 150 150 150 149 145 141 137 140 142 145 151 165 182 199 212 218 225 229 226 219 221 229 239 242
115 116 116 117 117 116 115 113 113 114 116 118 120 118 113 109 107 107 107 108 109 110 110 110 110 109 108 107 108 109 109 108 110 116 122 127 130 132 134 137 143 151 159 164 160 158 156 156 154 150 145 139 139 141 145 152 168 184 200 210 213 219 228 235 230 229 232 241 246